Time,TemperatureF,DewpointF,PressureIn,WindDirection,WindDirectionDegrees,WindSpeedMPH,WindSpeedGustMPH,Humidity,HourlyPrecipIn,Conditions,Clouds,dailyrainin,SolarRadiationWatts/m^2,SoftwareType,DateUTC
2013-04-26 00:01:00,60.4,45.1,30.08,SE,124,7.0,13.0,57,0.00,,---,0.49,0.00,VWS V14.00,2013-04-26 05:01:00,
2013-04-26 00:06:00,60.3,45.0,30.08,SE,124,8.0,12.0,57,0.00,,---,0.00,0.00,VWS V14.00,2013-04-26 05:06:00,
2013-04-26 00:11:00,60.2,44.9,30.08,SE,126,4.0,12.0,57,0.00,,---,0.00,0.00,VWS V14.00,2013-04-26 05:11:00,
2013-04-26 00:16:00,60.2,44.9,30.08,SE,126,6.0,9.0,57,0.00,,---,0.00,0.00,VWS V14.00,2013-04-26 05:16:00,
2013-04-26 00:21:00,60.2,44.9,30.08,SE,127,5.0,14.0,57,0.00,,---,0.00,0.00,VWS V14.00,2013-04-26 05:21:00,
2013-04-26 00:26:00,60.2,45.4,30.07,SE,129,6.0,16.0,58,0.00,,---,0.00,0.00,VWS V14.00,2013-04-26 05:26:00,
2013-04-26 00:31:00,60.2,45.4,30.07,SE,130,13.0,16.0,58,0.00,,---,0.00,0.00,VWS V14.00,2013-04-26 05:31:00,
2013-04-26 00:36:00,60.3,45.9,30.07,SE,136,7.0,17.0,59,0.00,,---,0.00,0.00,VWS V14.00,2013-04-26 05:36:00,
2013-04-26 00:41:00,60.3,46.4,30.07,SE,137,7.0,19.0,60,0.00,,---,0.00,0.00,VWS V14.00,2013-04-26 05:41:00,
2013-04-26 00:46:00,60.4,46.5,30.07,SE,132,15.0,17.0,60,0.00,,---,0.00,0.00,VWS V14.00,2013-04-26 05:46:00,
2013-04-26 00:51:00,60.4,46.9,30.07,SE,131,11.0,17.0,61,0.00,,---,0.00,0.00,VWS V14.00,2013-04-26 05:51:00,
2013-04-26 00:56:00,60.4,46.9,30.07,SE,131,11.0,16.0,61,0.00,,---,0.00,0.00,VWS V14.00,2013-04-26 05:56:00,
2013-04-26 01:01:00,60.4,47.3,30.06,SE,128,8.0,19.0,62,0.00,,---,0.00,0.00,VWS V14.00,2013-04-26 06:01:00,
2013-04-26 01:06:00,60.4,47.8,30.06,SE,133,16.0,16.0,63,0.00,,---,0.00,0.00,VWS V14.00,2013-04-26 06:06:00,
2013-04-26 01:11:00,60.3,48.1,30.06,SE,146,10.0,16.0,64,0.00,,---,0.00,0.00,VWS V14.00,2013-04-26 06:11:00,
2013-04-26 01:16:00,60.2,48.4,30.05,SE,127,9.0,14.0,65,0.00,,---,0.00,0.00,VWS V14.00,2013-04-26 06:16:00,
2013-04-26 01:21:00,60.2,48.8,30.05,SE,143,2.0,17.0,66,0.00,,---,0.00,0.00,VWS V14.00,2013-04-26 06:21:00,
2013-04-26 01:26:00,60.2,49.2,30.05,SE,135,6.0,17.0,67,0.00,,---,0.00,0.00,VWS V14.00,2013-04-26 06:26:00,
2013-04-26 01:31:00,60.2,49.6,30.04,SE,126,8.0,17.0,68,0.00,,---,0.00,0.00,VWS V14.00,2013-04-26 06:31:00,
2013-04-26 01:36:00,60.2,50.0,30.04,SE,128,8.0,16.0,69,0.00,,---,0.00,0.00,VWS V14.00,2013-04-26 06:36:00,
2013-04-26 01:41:00,60.1,50.3,30.04,SE,126,13.0,16.0,70,0.00,,---,0.00,0.00,VWS V14.00,2013-04-26 06:41:00,
2013-04-26 01:46:00,60.1,50.7,30.05,SE,130,14.0,15.0,71,0.00,,---,0.00,0.00,VWS V14.00,2013-04-26 06:46:00,
2013-04-26 01:51:00,60.0,51.0,30.04,SE,140,13.0,15.0,72,0.00,,---,0.00,0.00,VWS V14.00,2013-04-26 06:51:00,
2013-04-26 01:56:00,59.9,51.2,30.03,SE,136,13.0,15.0,73,0.00,,---,0.00,0.00,VWS V14.00,2013-04-26 06:56:00,
2013-04-26 02:01:00,59.7,51.0,30.03,SE,134,12.0,15.0,73,0.00,,---,0.00,0.00,VWS V14.00,2013-04-26 07:01:00,
2013-04-26 02:06:00,59.6,51.3,30.03,SE,138,8.0,11.0,74,0.00,,---,0.00,0.00,VWS V14.00,2013-04-26 07:06:00,
2013-04-26 02:11:00,59.5,51.2,30.02,SE,132,6.0,15.0,74,0.00,,---,0.00,0.00,VWS V14.00,2013-04-26 07:11:00,
2013-04-26 02:16:00,59.4,51.1,30.02,SE,139,7.0,15.0,74,0.00,,---,0.00,0.00,VWS V14.00,2013-04-26 07:16:00,
2013-04-26 02:21:00,59.3,51.4,30.02,SE,146,7.0,15.0,75,0.00,,---,0.00,0.00,VWS V14.00,2013-04-26 07:21:00,
2013-04-26 02:26:00,59.3,51.4,30.02,SE,140,6.0,12.0,75,0.00,,---,0.00,0.00,VWS V14.00,2013-04-26 07:26:00,
2013-04-26 02:31:00,59.1,51.2,30.02,SE,144,12.0,13.0,75,0.00,,---,0.00,0.00,VWS V14.00,2013-04-26 07:31:00,
2013-04-26 02:36:00,59.0,51.5,30.01,SE,142,6.0,11.0,76,0.00,,---,0.00,0.00,VWS V14.00,2013-04-26 07:36:00,
2013-04-26 02:41:00,58.9,51.7,30.01,SE,143,7.0,12.0,77,0.00,,---,0.00,0.00,VWS V14.00,2013-04-26 07:41:00,
2013-04-26 02:46:00,58.7,51.5,30.01,SE,145,5.0,12.0,77,0.00,,---,0.00,0.00,VWS V14.00,2013-04-26 07:46:00,
2013-04-26 02:51:00,58.5,51.7,30.00,SSE,153,5.0,15.0,78,0.00,,---,0.00,0.00,VWS V14.00,2013-04-26 07:51:00,
2013-04-26 02:56:00,58.4,51.6,30.00,SE,139,2.0,12.0,78,0.00,,---,0.00,0.00,VWS V14.00,2013-04-26 07:56:00,
2013-04-26 03:01:00,58.4,51.6,30.00,SE,138,5.0,12.0,78,0.00,,---,0.00,0.00,VWS V14.00,2013-04-26 08:01:00,
2013-04-26 03:06:00,58.4,51.9,30.00,SE,141,6.0,12.0,79,0.00,,---,0.00,0.00,VWS V14.00,2013-04-26 08:06:00,
2013-04-26 03:11:00,58.4,51.9,30.00,SSE,147,7.0,14.0,79,0.00,,---,0.00,0.00,VWS V14.00,2013-04-26 08:11:00,
2013-04-26 03:16:00,58.4,51.9,30.00,SE,131,8.0,15.0,79,0.00,,---,0.00,0.00,VWS V14.00,2013-04-26 08:16:00,
2013-04-26 03:21:00,58.3,51.8,30.00,SE,126,5.0,15.0,79,0.00,,---,0.00,0.00,VWS V14.00,2013-04-26 08:21:00,
2013-04-26 03:26:00,58.2,52.1,30.00,SE,130,11.0,14.0,80,0.00,,---,0.00,0.00,VWS V14.00,2013-04-26 08:26:00,
2013-04-26 03:31:00,58.1,52.0,29.99,SE,130,7.0,14.0,80,0.00,,---,0.00,0.00,VWS V14.00,2013-04-26 08:31:00,
2013-04-26 03:36:00,57.9,51.8,29.99,SE,130,9.0,14.0,80,0.00,,---,0.00,0.00,VWS V14.00,2013-04-26 08:36:00,
2013-04-26 03:41:00,57.7,51.9,29.99,SE,133,7.0,14.0,81,0.00,,---,0.00,0.00,VWS V14.00,2013-04-26 08:41:00,
2013-04-26 03:46:00,57.6,52.2,29.98,SE,134,11.0,15.0,82,0.00,,---,0.00,0.00,VWS V14.00,2013-04-26 08:46:00,
2013-04-26 03:51:00,57.4,52.0,29.98,SE,140,9.0,15.0,82,0.00,,---,0.00,0.00,VWS V14.00,2013-04-26 08:51:00,
2013-04-26 03:56:00,57.4,52.3,29.98,SE,139,9.0,12.0,83,0.00,,---,0.00,0.00,VWS V14.00,2013-04-26 08:56:00,
2013-04-26 04:01:00,57.3,52.2,29.97,SE,136,5.0,12.0,83,0.00,,---,0.00,0.00,VWS V14.00,2013-04-26 09:01:00,
2013-04-26 04:06:00,57.2,52.4,29.97,SE,138,5.0,12.0,84,0.00,,---,0.00,0.00,VWS V14.00,2013-04-26 09:06:00,
2013-04-26 04:11:00,57.2,52.7,29.98,SE,138,2.0,13.0,85,0.00,,---,0.00,0.00,VWS V14.00,2013-04-26 09:11:00,
2013-04-26 04:16:00,57.1,52.6,29.98,SE,140,8.0,11.0,85,0.00,,---,0.00,0.00,VWS V14.00,2013-04-26 09:16:00,
2013-04-26 04:21:00,57.1,52.6,29.97,SE,142,4.0,11.0,85,0.00,,---,0.00,0.00,VWS V14.00,2013-04-26 09:21:00,
2013-04-26 04:26:00,57.0,52.5,29.97,SE,142,5.0,9.0,85,0.00,,---,0.00,0.00,VWS V14.00,2013-04-26 09:26:00,
2013-04-26 04:31:00,57.0,52.5,29.98,SE,142,2.0,9.0,85,0.00,,---,0.00,0.00,VWS V14.00,2013-04-26 09:31:00,
2013-04-26 04:36:00,57.0,52.9,29.98,SE,142,4.0,6.0,86,0.00,,---,0.00,0.00,VWS V14.00,2013-04-26 09:36:00,
2013-04-26 04:41:00,57.1,53.0,29.98,SE,142,1.0,6.0,86,0.00,,---,0.00,0.00,VWS V14.00,2013-04-26 09:41:00,
2013-04-26 04:46:00,57.1,53.0,29.98,SE,142,0.0,6.0,86,0.00,,---,0.00,0.00,VWS V14.00,2013-04-26 09:46:00,
2013-04-26 04:51:00,57.1,53.0,29.98,SE,142,4.0,7.0,86,0.00,,---,0.00,0.00,VWS V14.00,2013-04-26 09:51:00,
2013-04-26 04:56:00,57.1,53.0,29.97,SE,142,1.0,9.0,86,0.00,,---,0.00,0.00,VWS V14.00,2013-04-26 09:56:00,
2013-04-26 05:01:00,57.2,53.1,29.97,SE,142,5.0,9.0,86,0.00,,---,0.00,0.00,VWS V14.00,2013-04-26 10:01:00,
2013-04-26 05:06:00,57.2,53.1,29.97,SE,142,6.0,10.0,86,0.00,,---,0.00,0.00,VWS V14.00,2013-04-26 10:06:00,
2013-04-26 05:11:00,57.3,53.5,29.96,SE,142,12.0,12.0,87,0.00,,---,0.00,0.00,VWS V14.00,2013-04-26 10:11:00,
2013-04-26 05:16:00,57.3,53.5,29.96,SE,135,12.0,12.0,87,0.00,,---,0.00,0.00,VWS V14.00,2013-04-26 10:16:00,
2013-04-26 05:21:00,57.3,53.8,29.96,SE,138,6.0,14.0,88,0.00,,---,0.00,0.00,VWS V14.00,2013-04-26 10:21:00,
2013-04-26 05:26:00,57.3,53.8,29.96,SE,138,5.0,9.0,88,0.00,,---,0.00,0.00,VWS V14.00,2013-04-26 10:26:00,
2013-04-26 05:31:00,57.3,53.8,29.96,SE,138,2.0,9.0,88,0.00,,---,0.00,0.00,VWS V14.00,2013-04-26 10:31:00,
2013-04-26 05:36:00,57.3,54.1,29.96,SE,138,1.0,8.0,89,0.00,,---,0.00,0.00,VWS V14.00,2013-04-26 10:36:00,
2013-04-26 05:41:00,57.3,54.1,29.96,SE,137,5.0,10.0,89,0.00,,---,0.00,0.00,VWS V14.00,2013-04-26 10:41:00,
2013-04-26 05:46:00,57.4,54.2,29.96,SE,136,5.0,8.0,89,0.00,,---,0.00,0.00,VWS V14.00,2013-04-26 10:46:00,
2013-04-26 05:51:00,57.5,54.3,29.96,SE,135,5.0,10.0,89,0.00,,---,0.00,0.00,VWS V14.00,2013-04-26 10:51:00,
2013-04-26 05:56:00,57.6,54.7,29.96,SE,134,7.0,9.0,90,0.00,,---,0.00,0.00,VWS V14.00,2013-04-26 10:56:00,
2013-04-26 06:00:00,57.7,54.8,29.97,SE,134,2.0,11.0,90,0.00,,---,0.00,0.00,VWS V14.00,2013-04-26 11:00:00,
2013-04-26 06:05:00,57.7,54.8,29.97,SE,134,5.0,8.0,90,0.00,,---,0.00,0.00,VWS V14.00,2013-04-26 11:05:00,
2013-04-26 06:10:00,57.8,55.2,29.96,SE,136,8.0,15.0,91,0.00,,---,0.00,0.00,VWS V14.00,2013-04-26 11:10:00,
2013-04-26 06:15:00,57.9,55.3,29.96,SE,136,6.0,8.0,91,0.00,,---,0.00,0.00,VWS V14.00,2013-04-26 11:15:00,
2013-04-26 06:20:00,58.0,55.4,29.96,SE,136,6.0,10.0,91,0.00,,---,0.00,0.00,VWS V14.00,2013-04-26 11:20:00,
2013-04-26 06:25:00,58.0,55.4,29.96,SE,136,4.0,9.0,91,0.00,,---,0.00,0.00,VWS V14.00,2013-04-26 11:25:00,
2013-04-26 06:30:00,58.0,55.4,29.95,SE,136,6.0,9.0,91,0.00,,---,0.00,0.00,VWS V14.00,2013-04-26 11:30:00,
2013-04-26 06:35:00,58.1,55.5,29.96,SE,136,6.0,10.0,91,0.00,,---,0.00,0.00,VWS V14.00,2013-04-26 11:35:00,
2013-04-26 06:40:00,58.1,55.5,29.96,SE,136,2.0,10.0,91,0.00,,---,0.00,0.00,VWS V14.00,2013-04-26 11:40:00,
2013-04-26 06:45:00,58.2,55.6,29.96,SE,136,6.0,9.0,91,0.00,,---,0.00,0.00,VWS V14.00,2013-04-26 11:45:00,
2013-04-26 06:50:00,58.3,55.7,29.96,SE,136,9.0,10.0,91,0.00,,---,0.00,0.00,VWS V14.00,2013-04-26 11:50:00,
2013-04-26 06:55:00,58.3,55.7,29.96,SE,136,12.0,12.0,91,0.00,,---,0.00,0.00,VWS V14.00,2013-04-26 11:55:00,
2013-04-26 07:00:00,58.4,55.8,29.96,SE,135,6.0,12.0,91,0.00,,---,0.00,0.00,VWS V14.00,2013-04-26 12:00:00,
2013-04-26 07:05:00,58.5,55.9,29.96,SE,136,4.0,9.0,91,0.00,,---,0.00,0.00,VWS V14.00,2013-04-26 12:05:00,
2013-04-26 07:10:00,58.6,56.0,29.96,SE,136,4.0,10.0,91,0.00,,---,0.00,7.00,VWS V14.00,2013-04-26 12:10:00,
2013-04-26 07:15:00,58.7,56.1,29.96,SE,136,2.0,10.0,91,0.00,,---,0.00,7.00,VWS V14.00,2013-04-26 12:15:00,
2013-04-26 07:20:00,58.8,56.5,29.97,SE,134,6.0,11.0,92,0.00,,---,0.00,9.00,VWS V14.00,2013-04-26 12:20:00,
2013-04-26 07:25:00,58.9,56.6,29.97,SE,134,6.0,7.0,92,0.00,,---,0.00,12.00,VWS V14.00,2013-04-26 12:25:00,
2013-04-26 07:30:00,58.9,56.6,29.98,SE,134,7.0,11.0,92,0.00,,---,0.00,11.00,VWS V14.00,2013-04-26 12:30:00,
2013-04-26 07:35:00,59.0,56.7,29.97,SE,134,7.0,9.0,92,0.00,,---,0.00,11.00,VWS V14.00,2013-04-26 12:35:00,
2013-04-26 07:40:00,59.1,56.8,29.98,SE,134,4.0,11.0,92,0.00,,---,0.00,12.00,VWS V14.00,2013-04-26 12:40:00,
2013-04-26 07:45:00,59.1,56.8,29.98,SE,134,2.0,8.0,92,0.00,,---,0.00,19.00,VWS V14.00,2013-04-26 12:45:00,
2013-04-26 07:50:00,59.3,57.0,29.98,SE,134,5.0,9.0,92,0.00,,---,0.00,16.00,VWS V14.00,2013-04-26 12:50:00,
2013-04-26 07:55:00,59.3,57.0,29.98,SE,133,4.0,12.0,92,0.00,,---,0.00,25.00,VWS V14.00,2013-04-26 12:55:00,
2013-04-26 08:00:00,59.4,57.1,29.98,SE,133,5.0,12.0,92,0.00,,---,0.00,21.00,VWS V14.00,2013-04-26 13:00:00,
2013-04-26 08:05:00,59.5,57.5,29.98,SE,133,4.0,9.0,93,0.00,,---,0.00,26.00,VWS V14.00,2013-04-26 13:05:00,
2013-04-26 08:10:00,59.6,57.6,29.98,SE,133,5.0,11.0,93,0.00,,---,0.00,28.00,VWS V14.00,2013-04-26 13:10:00,
2013-04-26 08:15:00,59.7,57.7,29.98,SE,133,5.0,9.0,93,0.00,,---,0.00,40.00,VWS V14.00,2013-04-26 13:15:00,
2013-04-26 08:20:00,59.8,57.8,29.99,SE,133,2.0,9.0,93,0.00,,---,0.00,33.00,VWS V14.00,2013-04-26 13:20:00,
2013-04-26 08:25:00,59.8,57.8,29.99,SE,133,1.0,6.0,93,0.00,,---,0.00,39.00,VWS V14.00,2013-04-26 13:25:00,
2013-04-26 08:30:00,59.9,58.2,29.99,SE,133,4.0,7.0,94,0.00,,---,0.00,42.00,VWS V14.00,2013-04-26 13:30:00,
2013-04-26 08:35:00,60.0,58.3,30.00,SE,133,2.0,7.0,94,0.00,,---,0.00,25.00,VWS V14.00,2013-04-26 13:35:00,
2013-04-26 08:40:00,60.1,58.4,30.00,SE,133,4.0,7.0,94,0.00,,---,0.00,28.00,VWS V14.00,2013-04-26 13:40:00,
2013-04-26 08:45:00,60.2,58.5,30.00,SE,133,4.0,5.0,94,0.00,,---,0.00,35.00,VWS V14.00,2013-04-26 13:45:00,
2013-04-26 08:50:00,60.2,58.5,30.00,SE,133,0.0,7.0,94,0.00,,---,0.00,37.00,VWS V14.00,2013-04-26 13:50:00,
2013-04-26 08:55:00,60.3,58.6,30.00,SE,133,2.0,5.0,94,0.00,,---,0.00,44.00,VWS V14.00,2013-04-26 13:55:00,
2013-04-26 09:00:00,60.4,58.7,30.00,SE,133,2.0,5.0,94,0.00,,---,0.00,40.00,VWS V14.00,2013-04-26 14:00:00,
2013-04-26 09:05:00,60.5,58.8,30.00,SE,133,1.0,6.0,94,0.00,,---,0.00,44.00,VWS V14.00,2013-04-26 14:05:00,
2013-04-26 09:10:00,60.5,58.8,30.01,SE,133,4.0,6.0,94,0.00,,---,0.00,37.00,VWS V14.00,2013-04-26 14:10:00,
2013-04-26 09:15:00,60.6,58.9,30.01,SE,133,4.0,5.0,94,0.00,,---,0.00,56.00,VWS V14.00,2013-04-26 14:15:00,
2013-04-26 09:20:00,60.7,59.0,30.00,SE,133,1.0,6.0,94,0.00,,---,0.00,69.00,VWS V14.00,2013-04-26 14:20:00,
2013-04-26 09:25:00,60.9,59.2,30.00,SE,133,4.0,5.0,94,0.00,,---,0.00,84.00,VWS V14.00,2013-04-26 14:25:00,
2013-04-26 09:30:00,61.0,59.3,30.00,SE,133,2.0,5.0,94,0.00,,---,0.00,95.00,VWS V14.00,2013-04-26 14:30:00,
2013-04-26 09:35:00,61.3,59.6,30.00,SE,133,0.0,5.0,94,0.00,,---,0.00,74.00,VWS V14.00,2013-04-26 14:35:00,
2013-04-26 09:40:00,61.4,60.0,30.00,SE,133,0.0,5.0,95,0.00,,---,0.00,104.00,VWS V14.00,2013-04-26 14:40:00,
2013-04-26 09:45:00,61.8,60.4,29.99,SE,133,1.0,4.0,95,0.00,,---,0.00,105.00,VWS V14.00,2013-04-26 14:45:00,
2013-04-26 09:50:00,62.0,60.6,29.99,SE,133,4.0,9.0,95,0.00,,---,0.00,90.00,VWS V14.00,2013-04-26 14:50:00,
2013-04-26 09:55:00,62.3,60.8,29.99,SE,133,5.0,8.0,95,0.00,,---,0.00,97.00,VWS V14.00,2013-04-26 14:55:00,
2013-04-26 10:00:00,62.7,61.2,29.99,SE,133,2.0,8.0,95,0.00,,---,0.00,102.00,VWS V14.00,2013-04-26 15:00:00,
2013-04-26 10:05:00,63.1,61.3,29.97,SSE,148,2.0,11.0,94,0.00,,---,0.00,149.00,VWS V14.00,2013-04-26 15:05:00,
2013-04-26 10:10:00,63.8,62.0,29.98,SSE,148,8.0,11.0,94,0.00,,---,0.00,102.00,VWS V14.00,2013-04-26 15:10:00,
2013-04-26 10:15:00,64.2,62.4,29.98,SSE,148,4.0,6.0,94,0.00,,---,0.00,114.00,VWS V14.00,2013-04-26 15:15:00,
2013-04-26 10:20:00,64.4,62.3,29.98,SSE,148,0.0,7.0,93,0.00,,---,0.00,135.00,VWS V14.00,2013-04-26 15:20:00,
2013-04-26 10:25:00,64.8,62.4,29.97,SSE,148,1.0,6.0,92,0.00,,---,0.00,213.00,VWS V14.00,2013-04-26 15:25:00,
2013-04-26 10:30:00,65.2,62.8,29.98,SSE,148,5.0,8.0,92,0.00,,---,0.00,162.00,VWS V14.00,2013-04-26 15:30:00,
2013-04-26 10:35:00,65.5,63.1,29.98,SSE,148,2.0,6.0,92,0.00,,---,0.00,118.00,VWS V14.00,2013-04-26 15:35:00,
2013-04-26 10:40:00,65.8,62.8,29.99,SSE,148,4.0,7.0,90,0.00,,---,0.00,102.00,VWS V14.00,2013-04-26 15:40:00,
2013-04-26 10:45:00,66.1,62.5,29.99,SSE,148,1.0,9.0,88,0.00,,---,0.00,65.00,VWS V14.00,2013-04-26 15:45:00,
2013-04-26 10:50:00,66.3,62.3,29.99,SSE,148,2.0,9.0,87,0.00,,---,0.00,105.00,VWS V14.00,2013-04-26 15:50:00,
2013-04-26 10:55:00,66.5,62.2,29.99,SSE,148,2.0,11.0,86,0.00,,---,0.00,91.00,VWS V14.00,2013-04-26 15:55:00,
2013-04-26 11:00:00,66.7,62.4,29.99,SSE,152,4.0,11.0,86,0.00,,---,0.00,178.00,VWS V14.00,2013-04-26 16:00:00,
2013-04-26 11:05:00,66.9,62.6,29.99,SSE,152,5.0,9.0,86,0.00,,---,0.00,125.00,VWS V14.00,2013-04-26 16:05:00,
2013-04-26 11:10:00,67.1,62.5,29.99,SSE,153,6.0,11.0,85,0.00,,---,0.00,162.00,VWS V14.00,2013-04-26 16:10:00,
2013-04-26 11:15:00,67.2,62.2,30.00,SE,145,13.0,19.0,84,0.00,,---,0.00,167.00,VWS V14.00,2013-04-26 16:15:00,
2013-04-26 11:20:00,67.2,62.2,30.00,SSE,153,14.0,19.0,84,0.00,,---,0.00,144.00,VWS V14.00,2013-04-26 16:20:00,
2013-04-26 11:25:00,67.2,62.2,30.00,SSE,150,8.0,14.0,84,0.00,,---,0.00,163.00,VWS V14.00,2013-04-26 16:25:00,
2013-04-26 11:30:00,67.4,62.4,30.00,SE,139,12.0,19.0,84,0.00,,---,0.00,313.00,VWS V14.00,2013-04-26 16:30:00,
2013-04-26 11:35:00,67.5,62.2,30.00,SSE,148,13.0,17.0,83,0.00,,---,0.00,339.00,VWS V14.00,2013-04-26 16:35:00,
2013-04-26 11:40:00,67.7,62.4,30.00,SSE,147,7.0,17.0,83,0.00,,---,0.00,352.00,VWS V14.00,2013-04-26 16:40:00,
2013-04-26 11:45:00,68.1,62.8,30.00,SE,141,5.0,13.0,83,0.00,,---,0.00,229.00,VWS V14.00,2013-04-26 16:45:00,
2013-04-26 11:50:00,68.3,62.6,30.00,SSE,155,7.0,13.0,82,0.00,,---,0.00,250.00,VWS V14.00,2013-04-26 16:50:00,
2013-04-26 11:55:00,68.4,62.3,30.00,SSE,161,4.0,11.0,81,0.00,,---,0.00,367.00,VWS V14.00,2013-04-26 16:55:00,
2013-04-26 12:00:00,68.6,62.5,30.00,SSE,161,7.0,11.0,81,0.00,,---,0.00,246.00,VWS V14.00,2013-04-26 17:00:00,
2013-04-26 12:05:00,68.8,62.7,30.00,SSE,162,5.0,11.0,81,0.00,,---,0.00,211.00,VWS V14.00,2013-04-26 17:05:00,
2013-04-26 12:10:00,68.9,62.5,30.00,SSE,148,8.0,16.0,80,0.00,,---,0.00,304.00,VWS V14.00,2013-04-26 17:10:00,
2013-04-26 12:15:00,69.2,62.4,29.99,SSE,149,6.0,11.0,79,0.00,,---,0.00,304.00,VWS V14.00,2013-04-26 17:15:00,
2013-04-26 12:20:00,69.4,62.6,29.99,SSE,168,10.0,13.0,79,0.00,,---,0.00,308.00,VWS V14.00,2013-04-26 17:20:00,
2013-04-26 12:25:00,69.7,62.9,29.98,SSE,148,9.0,20.0,79,0.00,,---,0.00,332.00,VWS V14.00,2013-04-26 17:25:00,
2013-04-26 12:30:00,69.9,62.7,29.98,SSE,149,6.0,20.0,78,0.00,,---,0.00,211.00,VWS V14.00,2013-04-26 17:30:00,
2013-04-26 12:35:00,70.0,62.5,29.98,SSE,151,7.0,16.0,77,0.00,,---,0.00,192.00,VWS V14.00,2013-04-26 17:35:00,
2013-04-26 12:40:00,70.0,62.8,29.98,SSE,155,7.0,16.0,78,0.00,,---,0.00,125.00,VWS V14.00,2013-04-26 17:40:00,
2013-04-26 12:45:00,69.9,62.7,29.98,SSE,157,11.0,16.0,78,0.00,,---,0.00,253.00,VWS V14.00,2013-04-26 17:45:00,
2013-04-26 12:50:00,69.9,62.4,29.98,SSE,168,13.0,17.0,77,0.00,,---,0.00,181.00,VWS V14.00,2013-04-26 17:50:00,
2013-04-26 12:55:00,69.9,62.4,29.98,SE,132,5.0,15.0,77,0.00,,---,0.00,142.00,VWS V14.00,2013-04-26 17:55:00,
2013-04-26 13:00:00,69.9,62.4,29.98,SE,130,12.0,18.0,77,0.00,,---,0.00,158.00,VWS V14.00,2013-04-26 18:00:00,
2013-04-26 13:05:00,69.9,62.4,29.98,SSE,154,6.0,12.0,77,0.00,,---,0.00,274.00,VWS V14.00,2013-04-26 18:05:00,
2013-04-26 13:10:00,70.1,62.9,29.98,WSW,257,15.0,17.0,78,0.00,,---,0.00,188.00,VWS V14.00,2013-04-26 18:10:00,
2013-04-26 13:15:00,70.2,63.0,29.97,South,185,4.0,10.0,78,0.00,,---,0.00,278.00,VWS V14.00,2013-04-26 18:15:00,
2013-04-26 13:20:00,70.4,63.2,29.96,SW,221,8.0,11.0,78,0.00,,---,0.00,236.00,VWS V14.00,2013-04-26 18:20:00,
2013-04-26 13:25:00,70.6,63.4,29.96,SSE,153,10.0,10.0,78,0.00,,---,0.00,506.00,VWS V14.00,2013-04-26 18:25:00,
2013-04-26 13:30:00,71.0,63.1,29.96,SE,134,9.0,14.0,76,0.00,,---,0.00,411.00,VWS V14.00,2013-04-26 18:30:00,
2013-04-26 13:35:00,71.3,63.0,29.96,ESE,115,7.0,13.0,75,0.00,,---,0.00,450.00,VWS V14.00,2013-04-26 18:35:00,
2013-04-26 13:40:00,71.4,63.1,29.96,SSE,155,8.0,13.0,75,0.00,,---,0.00,183.00,VWS V14.00,2013-04-26 18:40:00,
2013-04-26 13:45:00,71.4,63.1,29.95,SSE,157,14.0,21.0,75,0.00,,---,0.00,339.00,VWS V14.00,2013-04-26 18:45:00,
2013-04-26 13:50:00,71.5,63.2,29.96,SSE,168,7.0,21.0,75,0.00,,---,0.00,494.00,VWS V14.00,2013-04-26 18:50:00,
2013-04-26 13:55:00,72.0,63.3,29.95,SSW,192,2.0,14.0,74,0.00,,---,0.00,413.00,VWS V14.00,2013-04-26 18:55:00,
2013-04-26 14:00:00,72.5,63.4,29.96,South,180,7.0,14.0,73,0.00,,---,0.00,214.00,VWS V14.00,2013-04-26 19:00:00,
2013-04-26 14:05:00,72.4,63.3,29.95,SSE,157,6.0,16.0,73,0.00,,---,0.00,332.00,VWS V14.00,2013-04-26 19:05:00,
2013-04-26 14:10:00,72.5,63.0,29.95,SSW,196,4.0,16.0,72,0.00,,---,0.00,352.00,VWS V14.00,2013-04-26 19:10:00,
2013-04-26 14:15:00,72.5,63.0,29.95,SW,232,10.0,16.0,72,0.00,,---,0.00,299.00,VWS V14.00,2013-04-26 19:15:00,
2013-04-26 14:20:00,72.4,62.9,29.95,SSE,148,8.0,16.0,72,0.00,,---,0.00,220.00,VWS V14.00,2013-04-26 19:20:00,
2013-04-26 14:25:00,72.3,62.8,29.95,SE,129,11.0,20.0,72,0.00,,---,0.00,151.00,VWS V14.00,2013-04-26 19:25:00,
2013-04-26 14:30:00,72.0,62.5,29.94,SE,142,11.0,20.0,72,0.00,,---,0.00,302.00,VWS V14.00,2013-04-26 19:30:00,
2013-04-26 14:35:00,71.7,62.6,29.94,SSE,157,5.0,14.0,73,0.00,,---,0.00,211.00,VWS V14.00,2013-04-26 19:35:00,
2013-04-26 14:40:00,71.5,62.8,29.94,SW,232,2.0,14.0,74,0.00,,---,0.00,343.00,VWS V14.00,2013-04-26 19:40:00,
2013-04-26 14:45:00,71.6,63.3,29.94,SSE,151,11.0,19.0,75,0.00,,---,0.00,318.00,VWS V14.00,2013-04-26 19:45:00,
2013-04-26 14:50:00,71.7,63.4,29.93,SSE,157,9.0,19.0,75,0.00,,---,0.00,399.00,VWS V14.00,2013-04-26 19:50:00,
2013-04-26 14:55:00,72.0,63.7,29.93,SSE,150,7.0,14.0,75,0.00,,---,0.00,390.00,VWS V14.00,2013-04-26 19:55:00,
2013-04-26 15:00:00,72.3,63.6,29.92,SE,139,5.0,14.0,74,0.00,,---,0.00,459.00,VWS V14.00,2013-04-26 20:00:00,
2013-04-26 15:05:00,72.6,63.5,29.92,SSE,157,10.0,14.0,73,0.00,,---,0.00,1007.00,VWS V14.00,2013-04-26 20:05:00,
2013-04-26 15:10:00,73.3,63.7,29.91,SE,137,8.0,16.0,72,0.00,,---,0.00,1072.00,VWS V14.00,2013-04-26 20:10:00,
2013-04-26 15:15:00,73.8,63.8,29.90,SE,144,12.0,17.0,71,0.00,,---,0.00,394.00,VWS V14.00,2013-04-26 20:15:00,
2013-04-26 15:20:00,74.3,64.3,29.90,SW,220,3.0,18.0,71,0.00,,---,0.00,392.00,VWS V14.00,2013-04-26 20:20:00,
2013-04-26 15:25:00,74.6,63.8,29.91,SSE,163,7.0,18.0,69,0.00,,---,0.00,446.00,VWS V14.00,2013-04-26 20:25:00,
2013-04-26 15:30:00,74.8,64.0,29.91,South,178,4.0,18.0,69,0.00,,---,0.00,478.00,VWS V14.00,2013-04-26 20:30:00,
2013-04-26 15:35:00,75.2,64.3,29.91,South,182,10.0,23.0,69,0.00,,---,0.00,478.00,VWS V14.00,2013-04-26 20:35:00,
2013-04-26 15:40:00,75.3,64.0,29.90,ESE,109,8.0,23.0,68,0.00,,---,0.00,1002.00,VWS V14.00,2013-04-26 20:40:00,
2013-04-26 15:45:00,75.3,64.0,29.90,SSW,203,10.0,19.0,68,0.00,,---,0.00,1048.00,VWS V14.00,2013-04-26 20:45:00,
2013-04-26 15:50:00,75.4,64.1,29.90,SSW,197,6.0,19.0,68,0.00,,---,0.00,380.00,VWS V14.00,2013-04-26 20:50:00,
2013-04-26 15:55:00,75.4,64.1,29.90,SSE,154,6.0,17.0,68,0.00,,---,0.00,200.00,VWS V14.00,2013-04-26 20:55:00,
2013-04-26 16:00:00,75.0,63.7,29.90,SE,135,9.0,17.0,68,0.00,,---,0.00,274.00,VWS V14.00,2013-04-26 21:00:00,
2013-04-26 16:05:00,74.7,63.5,29.89,East,101,8.0,18.0,68,0.00,,---,0.00,118.00,VWS V14.00,2013-04-26 21:05:00,
2013-04-26 16:10:00,74.3,63.5,29.88,South,182,10.0,18.0,69,0.00,,---,0.00,202.00,VWS V14.00,2013-04-26 21:10:00,
2013-04-26 16:15:00,74.1,63.7,29.86,SE,132,7.0,15.0,70,0.00,,---,0.00,186.00,VWS V14.00,2013-04-26 21:15:00,
2013-04-26 16:20:00,73.9,63.5,29.86,SSE,151,10.0,15.0,70,0.00,,---,0.00,204.00,VWS V14.00,2013-04-26 21:20:00,
2013-04-26 16:25:00,73.9,63.9,29.87,SSE,149,7.0,17.0,71,0.00,,---,0.00,406.00,VWS V14.00,2013-04-26 21:25:00,
2013-04-26 16:30:00,74.1,63.7,29.87,SE,140,6.0,17.0,70,0.00,,---,0.00,230.00,VWS V14.00,2013-04-26 21:30:00,
2013-04-26 16:35:00,74.3,63.9,29.86,SE,137,9.0,14.0,70,0.00,,---,0.00,411.00,VWS V14.00,2013-04-26 21:35:00,
2013-04-26 16:40:00,74.5,64.1,29.86,SE,139,8.0,14.0,70,0.00,,---,0.00,320.00,VWS V14.00,2013-04-26 21:40:00,
2013-04-26 16:45:00,74.5,64.1,29.87,SSE,159,8.0,12.0,70,0.00,,---,0.00,123.00,VWS V14.00,2013-04-26 21:45:00,
2013-04-26 16:50:00,74.3,63.9,29.87,South,175,2.0,12.0,70,0.00,,---,0.00,91.00,VWS V14.00,2013-04-26 21:50:00,
2013-04-26 16:55:00,74.1,64.1,29.86,SSE,157,4.0,14.0,71,0.00,,---,0.00,90.00,VWS V14.00,2013-04-26 21:55:00,
2013-04-26 17:00:00,73.9,63.9,29.86,SW,225,2.0,14.0,71,0.00,,---,0.00,77.00,VWS V14.00,2013-04-26 22:00:00,
2013-04-26 17:05:00,73.7,63.7,29.85,SE,132,2.0,9.0,71,0.00,,---,0.00,125.00,VWS V14.00,2013-04-26 22:05:00,
2013-04-26 17:10:00,73.8,64.2,29.86,SSE,165,2.0,10.0,72,0.00,,---,0.00,144.00,VWS V14.00,2013-04-26 22:10:00,
2013-04-26 17:15:00,73.9,64.3,29.86,SSW,205,5.0,12.0,72,0.00,,---,0.00,367.00,VWS V14.00,2013-04-26 22:15:00,
2013-04-26 17:20:00,74.3,64.7,29.86,SSW,192,0.0,12.0,72,0.00,,---,0.00,302.00,VWS V14.00,2013-04-26 22:20:00,
2013-04-26 17:25:00,74.8,64.4,29.86,South,180,4.0,19.0,70,0.00,,---,0.00,281.00,VWS V14.00,2013-04-26 22:25:00,
2013-04-26 17:30:00,75.1,64.7,29.86,SSE,167,6.0,19.0,70,0.00,,---,0.00,276.00,VWS V14.00,2013-04-26 22:30:00,
2013-04-26 17:35:00,75.4,64.5,29.85,South,171,7.0,13.0,69,0.00,,---,0.00,563.00,VWS V14.00,2013-04-26 22:35:00,
2013-04-26 17:40:00,76.0,64.7,29.85,SE,146,13.0,13.0,68,0.00,,---,0.00,534.00,VWS V14.00,2013-04-26 22:40:00,
2013-04-26 17:45:00,76.5,64.7,29.85,SSW,207,5.0,13.0,67,0.00,,---,0.00,536.00,VWS V14.00,2013-04-26 22:45:00,
2013-04-26 17:50:00,76.9,64.7,29.85,SSE,163,9.0,14.0,66,0.00,,---,0.00,376.00,VWS V14.00,2013-04-26 22:50:00,
2013-04-26 17:55:00,76.9,65.1,29.84,SSE,150,10.0,14.0,67,0.00,,---,0.00,455.00,VWS V14.00,2013-04-26 22:55:00,
2013-04-26 18:00:00,76.7,64.5,29.84,SSE,148,6.0,16.0,66,0.00,,---,0.00,527.00,VWS V14.00,2013-04-26 23:00:00,
2013-04-26 18:05:00,76.8,65.0,29.84,South,182,5.0,9.0,67,0.00,,---,0.00,439.00,VWS V14.00,2013-04-26 23:05:00,
2013-04-26 18:10:00,76.8,65.0,29.84,SSE,165,8.0,11.0,67,0.00,,---,0.00,260.00,VWS V14.00,2013-04-26 23:10:00,
2013-04-26 18:15:00,76.9,65.1,29.84,SE,146,15.0,17.0,67,0.00,,---,0.00,399.00,VWS V14.00,2013-04-26 23:15:00,
2013-04-26 18:20:00,76.9,64.7,29.84,SE,136,10.0,17.0,66,0.00,,---,0.00,381.00,VWS V14.00,2013-04-26 23:20:00,
2013-04-26 18:25:00,76.8,64.6,29.84,South,172,8.0,15.0,66,0.00,,---,0.00,341.00,VWS V14.00,2013-04-26 23:25:00,
2013-04-26 18:30:00,76.8,65.0,29.84,SSE,151,14.0,15.0,67,0.00,,---,0.00,359.00,VWS V14.00,2013-04-26 23:30:00,
2013-04-26 18:35:00,76.7,64.9,29.83,SSE,155,2.0,9.0,67,0.00,,---,0.00,167.00,VWS V14.00,2013-04-26 23:35:00,
2013-04-26 18:40:00,76.7,65.3,29.83,SSE,161,8.0,9.0,68,0.00,,---,0.00,311.00,VWS V14.00,2013-04-26 23:40:00,
2013-04-26 18:45:00,76.7,64.9,29.83,SSE,148,7.0,9.0,67,0.00,,---,0.00,292.00,VWS V14.00,2013-04-26 23:45:00,
2013-04-26 18:50:00,76.7,64.9,29.83,SSE,157,8.0,13.0,67,0.00,,---,0.00,135.00,VWS V14.00,2013-04-26 23:50:00,
2013-04-26 19:05:00,75.7,64.8,29.83,South,180,4.0,14.0,69,0.00,,---,0.00,183.00,VWS V14.00,2013-04-27 00:05:00,
2013-04-26 19:10:00,75.4,64.5,29.83,South,178,5.0,14.0,69,0.00,,---,0.00,156.00,VWS V14.00,2013-04-27 00:10:00,
2013-04-26 19:15:00,75.1,64.7,29.83,SSW,194,6.0,10.0,70,0.00,,---,0.00,153.00,VWS V14.00,2013-04-27 00:15:00,
2013-04-26 19:20:00,75.1,65.1,29.83,SSE,154,6.0,13.0,71,0.00,,---,0.00,162.00,VWS V14.00,2013-04-27 00:20:00,
2013-04-26 19:25:00,75.0,65.0,29.83,SE,146,14.0,18.0,71,0.00,,---,0.00,139.00,VWS V14.00,2013-04-27 00:25:00,
2013-04-26 19:30:00,74.8,64.8,29.82,SE,132,12.0,20.0,71,0.00,,---,0.00,88.00,VWS V14.00,2013-04-27 00:30:00,
2013-04-26 19:35:00,74.4,64.8,29.82,SE,137,4.0,14.0,72,0.00,,---,0.00,42.00,VWS V14.00,2013-04-27 00:35:00,
2013-04-26 19:40:00,74.1,64.9,29.82,SE,138,9.0,14.0,73,0.00,,---,0.00,39.00,VWS V14.00,2013-04-27 00:40:00,
2013-04-26 19:45:00,73.7,64.9,29.82,ESE,123,9.0,15.0,74,0.00,,---,0.00,37.00,VWS V14.00,2013-04-27 00:45:00,
2013-04-26 19:50:00,73.4,65.0,29.82,SE,142,5.0,15.0,75,0.00,,---,0.00,19.00,VWS V14.00,2013-04-27 00:50:00,
2013-04-26 19:55:00,73.1,64.7,29.82,ESE,123,2.0,12.0,75,0.00,,---,0.00,11.00,VWS V14.00,2013-04-27 00:55:00,
2013-04-26 20:00:00,73.0,65.0,29.82,SE,132,2.0,12.0,76,0.00,,---,0.00,9.00,VWS V14.00,2013-04-27 01:00:00,
2013-04-26 20:05:00,72.8,64.8,29.82,SE,133,6.0,8.0,76,0.00,,---,0.00,7.00,VWS V14.00,2013-04-27 01:05:00,
2013-04-26 20:10:00,72.6,64.6,29.83,SE,133,4.0,8.0,76,0.00,,---,0.00,5.00,VWS V14.00,2013-04-27 01:10:00,
2013-04-26 20:15:00,72.5,64.5,29.83,SE,146,5.0,8.0,76,0.00,,---,0.00,0.00,VWS V14.00,2013-04-27 01:15:00,
2013-04-26 20:20:00,72.3,64.3,29.83,SE,146,2.0,11.0,76,0.00,,---,0.00,0.00,VWS V14.00,2013-04-27 01:20:00,
2013-04-26 20:25:00,72.2,64.2,29.83,SE,146,4.0,8.0,76,0.00,,---,0.00,0.00,VWS V14.00,2013-04-27 01:25:00,
2013-04-26 20:30:00,72.1,64.1,29.83,SE,146,0.0,8.0,76,0.00,,---,0.00,0.00,VWS V14.00,2013-04-27 01:30:00,
2013-04-26 20:35:00,72.0,64.0,29.84,ESE,116,1.0,11.0,76,0.00,,---,0.00,0.00,VWS V14.00,2013-04-27 01:35:00,
2013-04-26 20:40:00,71.9,64.3,29.83,SE,143,1.0,11.0,77,0.00,,---,0.00,0.00,VWS V14.00,2013-04-27 01:40:00,
2013-04-26 20:45:00,71.8,64.2,29.84,SSE,147,7.0,13.0,77,0.00,,---,0.00,0.00,VWS V14.00,2013-04-27 01:45:00,
2013-04-26 20:50:00,71.7,64.1,29.83,ESE,119,12.0,13.0,77,0.00,,---,0.00,0.00,VWS V14.00,2013-04-27 01:50:00,
2013-04-26 20:55:00,71.7,64.1,29.83,SSE,152,7.0,10.0,77,0.00,,---,0.00,0.00,VWS V14.00,2013-04-27 01:55:00,
2013-04-26 21:00:00,71.6,64.0,29.84,SSE,157,5.0,15.0,77,0.00,,---,0.00,0.00,VWS V14.00,2013-04-27 02:00:00,
2013-04-26 21:05:00,71.5,63.9,29.83,SSE,155,0.0,10.0,77,0.00,,---,0.00,0.00,VWS V14.00,2013-04-27 02:05:00,
2013-04-26 21:10:00,71.4,64.2,29.84,SSE,166,8.0,10.0,78,0.00,,---,0.00,0.00,VWS V14.00,2013-04-27 02:10:00,
2013-04-26 21:15:00,71.3,64.1,29.83,ESE,122,11.0,11.0,78,0.00,,---,0.00,0.00,VWS V14.00,2013-04-27 02:15:00,
2013-04-26 21:20:00,71.2,64.0,29.84,SSE,167,5.0,11.0,78,0.00,,---,0.00,0.00,VWS V14.00,2013-04-27 02:20:00,
2013-04-26 21:25:00,71.1,64.3,29.84,SE,137,7.0,11.0,79,0.00,,---,0.00,0.00,VWS V14.00,2013-04-27 02:25:00,
2013-04-26 21:30:00,71.0,64.2,29.85,SE,142,7.0,11.0,79,0.00,,---,0.00,0.00,VWS V14.00,2013-04-27 02:30:00,
2013-04-26 21:35:00,71.0,64.2,29.85,SE,142,0.0,6.0,79,0.00,,---,0.00,0.00,VWS V14.00,2013-04-27 02:35:00,
2013-04-26 21:40:00,70.8,64.3,29.85,SE,140,5.0,8.0,80,0.00,,---,0.00,0.00,VWS V14.00,2013-04-27 02:40:00,
2013-04-26 21:45:00,70.7,64.6,29.85,SE,126,2.0,8.0,81,0.00,,---,0.00,0.00,VWS V14.00,2013-04-27 02:45:00,
2013-04-26 21:50:00,70.7,64.6,29.86,ESE,122,1.0,8.0,81,0.00,,---,0.00,0.00,VWS V14.00,2013-04-27 02:50:00,
2013-04-26 21:55:00,70.6,64.5,29.86,SE,134,6.0,8.0,81,0.00,,---,0.00,0.00,VWS V14.00,2013-04-27 02:55:00,
2013-04-26 22:00:00,70.6,64.5,29.86,SE,134,4.0,8.0,81,0.00,,---,0.00,0.00,VWS V14.00,2013-04-27 03:00:00,
2013-04-26 22:05:00,70.5,64.4,29.87,SE,134,2.0,6.0,81,0.00,,---,0.00,0.00,VWS V14.00,2013-04-27 03:05:00,
2013-04-26 22:10:00,70.4,64.3,29.86,SE,135,2.0,7.0,81,0.00,,---,0.00,0.00,VWS V14.00,2013-04-27 03:10:00,
2013-04-26 22:15:00,70.2,64.4,29.87,SE,135,0.0,5.0,82,0.00,,---,0.00,0.00,VWS V14.00,2013-04-27 03:15:00,
2013-04-26 22:20:00,70.1,64.4,29.86,SE,135,0.0,7.0,82,0.00,,---,0.00,0.00,VWS V14.00,2013-04-27 03:20:00,
2013-04-26 22:25:00,69.9,64.5,29.86,SE,135,0.0,7.0,83,0.00,,---,0.00,0.00,VWS V14.00,2013-04-27 03:25:00,
2013-04-26 22:30:00,69.9,64.5,29.86,SE,135,2.0,7.0,83,0.00,,---,0.00,0.00,VWS V14.00,2013-04-27 03:30:00,
2013-04-26 22:35:00,69.8,64.4,29.86,SE,135,1.0,5.0,83,0.00,,---,0.00,0.00,VWS V14.00,2013-04-27 03:35:00,
2013-04-26 22:40:00,69.7,64.3,29.88,SE,135,1.0,5.0,83,0.00,,---,0.00,0.00,VWS V14.00,2013-04-27 03:40:00,
2013-04-26 22:45:00,69.6,64.6,29.87,SE,135,2.0,4.0,84,0.00,,---,0.00,0.00,VWS V14.00,2013-04-27 03:45:00,
2013-04-26 22:50:00,69.6,64.6,29.87,SE,135,0.0,8.0,84,0.00,,---,0.00,0.00,VWS V14.00,2013-04-27 03:50:00,
2013-04-26 22:55:00,69.5,64.5,29.88,SE,134,2.0,6.0,84,0.00,,---,0.00,0.00,VWS V14.00,2013-04-27 03:55:00,
2013-04-26 23:00:00,69.4,64.7,29.87,SE,134,2.0,8.0,85,0.00,,---,0.00,0.00,VWS V14.00,2013-04-27 04:00:00,
2013-04-26 23:01:00,69.5,64.8,29.87,SE,134,2.0,8.0,85,0.00,,---,0.00,0.00,VWS V14.00,2013-04-27 04:01:00,
2013-04-26 23:06:00,69.4,64.7,29.87,SE,128,8.0,9.0,85,0.00,,---,0.00,0.00,VWS V14.00,2013-04-27 04:06:00,
2013-04-26 23:11:00,69.4,65.0,29.87,SE,132,4.0,9.0,86,0.00,,---,0.00,0.00,VWS V14.00,2013-04-27 04:11:00,
2013-04-26 23:16:00,69.3,64.9,29.87,SE,136,6.0,11.0,86,0.00,,---,0.00,0.00,VWS V14.00,2013-04-27 04:16:00,
2013-04-26 23:21:00,69.3,64.9,29.86,SE,137,2.0,11.0,86,0.00,,---,0.00,0.00,VWS V14.00,2013-04-27 04:21:00,
2013-04-26 23:26:00,69.2,64.8,29.86,SE,138,5.0,9.0,86,0.00,,---,0.00,0.00,VWS V14.00,2013-04-27 04:26:00,
2013-04-26 23:31:00,69.1,64.7,29.86,SE,138,2.0,9.0,86,0.00,,---,0.00,0.00,VWS V14.00,2013-04-27 04:31:00,
2013-04-26 23:36:00,69.0,65.0,29.86,SE,140,5.0,8.0,87,0.00,,---,0.00,0.00,VWS V14.00,2013-04-27 04:36:00,
2013-04-26 23:41:00,69.0,65.0,29.86,SE,126,4.0,13.0,87,0.00,,---,0.00,0.00,VWS V14.00,2013-04-27 04:41:00,
2013-04-26 23:46:00,69.0,65.0,29.86,SE,139,4.0,11.0,87,0.00,,---,0.00,0.00,VWS V14.00,2013-04-27 04:46:00,
2013-04-26 23:51:00,69.0,65.0,29.86,SE,130,5.0,12.0,87,0.00,,---,0.00,0.00,VWS V14.00,2013-04-27 04:51:00,
2013-04-26 23:56:00,69.0,65.0,29.85,SE,132,5.0,9.0,87,0.00,,---,0.00,0.00,VWS V14.00,2013-04-27 04:56:00,